UPS214 KSDF-KMSP

Flight info

Callsign UPS214
Flight time N/A
Altitude 36000
Route RDHSE1 JIBKA BDF ODI CMAAC KKILR4
Aircraft B748/H-VGDW/C

Departure

Time 2026-05-05 02:53
Airport Louisville Muhammad Ali International Airport (KSDF)

Arrival

Time N/A
Airport Minneapolis–Saint Paul International Airport / Wold–Chamberlain Field (KMSP)
Time Latitude Longitude Altitude Speed Heading
2026-05-05 02:22 38.16362 -85.73773 495 ft 0 kts 269°
2026-05-05 02:35 38.16362 -85.73756 489 ft 3 kts 269°
2026-05-05 02:35 38.16362 -85.73733 484 ft 3 kts 269°
2026-05-05 02:35 38.16362 -85.73709 492 ft 3 kts 269°
2026-05-05 02:35 38.16362 -85.73686 484 ft 3 kts 269°
2026-05-05 02:36 38.16362 -85.73668 484 ft 0 kts 269°
2026-05-05 02:44 38.16362 -85.73669 495 ft 1 kts 269°
2026-05-05 02:44 38.16364 -85.73686 495 ft 1 kts 283°
2026-05-05 02:45 38.16369 -85.73695 486 ft 1 kts 303°
2026-05-05 02:45 38.16376 -85.73701 484 ft 2 kts 322°
2026-05-05 02:45 38.16391 -85.73710 493 ft 4 kts 336°
2026-05-05 02:45 38.16432 -85.73733 489 ft 9 kts 336°
2026-05-05 02:46 38.16499 -85.73779 490 ft 13 kts 322°
2026-05-05 02:46 38.16537 -85.73870 486 ft 13 kts 285°
2026-05-05 02:46 38.16567 -85.73982 483 ft 13 kts 300°
2026-05-05 02:46 38.16621 -85.74027 489 ft 8 kts 343°
2026-05-05 02:47 38.16684 -85.74051 486 ft 11 kts 345°
2026-05-05 02:47 38.16773 -85.74080 486 ft 15 kts 345°
2026-05-05 02:47 38.16884 -85.74116 483 ft 18 kts 345°
2026-05-05 02:47 38.17015 -85.74159 489 ft 21 kts 346°
2026-05-05 02:48 38.17166 -85.74208 485 ft 24 kts 346°
2026-05-05 02:48 38.17333 -85.74266 486 ft 26 kts 345°
2026-05-05 02:48 38.17513 -85.74324 487 ft 28 kts 345°
2026-05-05 02:48 38.17704 -85.74392 487 ft 30 kts 345°
2026-05-05 02:49 38.17911 -85.74452 492 ft 31 kts 344°
2026-05-05 02:49 38.18127 -85.74526 490 ft 33 kts 346°
2026-05-05 02:49 38.18359 -85.74601 489 ft 35 kts 345°
2026-05-05 02:49 38.18480 -85.74666 491 ft 4 kts 298°
2026-05-05 02:50 38.18485 -85.74693 488 ft 6 kts 278°
2026-05-05 02:50 38.18475 -85.74765 488 ft 11 kts 241°
2026-05-05 02:50 38.18444 -85.74793 488 ft 5 kts 196°
2026-05-05 02:50 38.18436 -85.74792 488 ft 0 kts 176°
2026-05-05 02:51 38.18434 -85.74791 487 ft 0 kts 167°
2026-05-05 02:51 38.18421 -85.74787 491 ft 3 kts 167°
2026-05-05 02:51 38.18405 -85.74782 488 ft 2 kts 167°
2026-05-05 02:51 38.18392 -85.74777 488 ft 7 kts 162°
2026-05-05 02:52 38.18090 -85.74673 491 ft 90 kts 166°
2026-05-05 02:52 38.17214 -85.74384 488 ft 169 kts 168°
2026-05-05 02:52 38.15939 -85.74005 876 ft 196 kts 167°
2026-05-05 02:52 38.14535 -85.73512 967 ft 224 kts 166°
2026-05-05 02:53 38.12939 -85.73236 1265 ft 235 kts 182°
2026-05-05 02:53 38.11304 -85.73259 1846 ft 235 kts 185°
2026-05-05 02:53 38.09693 -85.73315 2456 ft 230 kts 192°
2026-05-05 02:53 38.08227 -85.73886 3261 ft 215 kts 210°
2026-05-05 02:54 38.07025 -85.74997 3896 ft 210 kts 227°
2026-05-05 02:54 38.06181 -85.76515 4283 ft 220 kts 243°
2026-05-05 02:54 38.05758 -85.78439 4696 ft 234 kts 261°
2026-05-05 02:54 38.05733 -85.80541 5241 ft 242 kts 264°
2026-05-05 02:55 38.05768 -85.82681 6158 ft 246 kts 272°
2026-05-05 02:55 38.06193 -85.84826 6921 ft 254 kts 280°
2026-05-05 02:55 38.06690 -85.86991 7687 ft 257 kts 282°
2026-05-05 02:55 38.07449 -85.89071 8408 ft 267 kts 301°
2026-05-05 02:56 38.08788 -85.90761 9148 ft 279 kts 322°
2026-05-05 02:56 38.10569 -85.91814 9925 ft 287 kts 335°
2026-05-05 02:56 38.12474 -85.92670 10487 ft 297 kts 336°
2026-05-05 02:56 38.14486 -85.93554 10832 ft 314 kts 336°
2026-05-05 02:57 38.16587 -85.94493 11168 ft 333 kts 336°
2026-05-05 02:57 38.18821 -85.95501 11697 ft 345 kts 336°
2026-05-05 02:57 38.21108 -85.96527 12438 ft 351 kts 336°
2026-05-05 02:57 38.23429 -85.97568 13218 ft 356 kts 336°
2026-05-05 02:58 38.25778 -85.98625 13939 ft 360 kts 336°
2026-05-05 02:58 38.28156 -85.99697 14640 ft 364 kts 336°
2026-05-05 02:58 38.30552 -86.00776 15350 ft 367 kts 336°
2026-05-05 02:58 38.32968 -86.01865 16063 ft 370 kts 336°
2026-05-05 02:59 38.35406 -86.02965 16779 ft 373 kts 336°
2026-05-05 02:59 38.37857 -86.04073 17504 ft 376 kts 336°
2026-05-05 02:59 38.40332 -86.05191 18210 ft 379 kts 336°
2026-05-05 02:59 38.42828 -86.06319 18826 ft 381 kts 336°
2026-05-05 03:00 38.45340 -86.07456 19449 ft 384 kts 336°
2026-05-05 03:00 38.47867 -86.08601 20070 ft 387 kts 336°
2026-05-05 03:00 38.50412 -86.09755 20681 ft 390 kts 336°
2026-05-05 03:00 38.52980 -86.10920 21277 ft 392 kts 336°
2026-05-05 03:01 38.55516 -86.12215 21873 ft 391 kts 328°
2026-05-05 03:01 38.57780 -86.14108 22465 ft 389 kts 317°
2026-05-05 03:01 38.59790 -86.16431 23016 ft 391 kts 315°
2026-05-05 03:01 38.61761 -86.18771 23517 ft 393 kts 315°
2026-05-05 03:02 38.63765 -86.21162 23960 ft 395 kts 315°
2026-05-05 03:02 38.65786 -86.23566 24403 ft 398 kts 315°
2026-05-05 03:02 38.67819 -86.25981 24822 ft 400 kts 314°
2026-05-05 03:02 38.69866 -86.28419 25238 ft 402 kts 314°
2026-05-05 03:03 38.71919 -86.30867 25673 ft 405 kts 314°
2026-05-05 03:03 38.73987 -86.33335 26090 ft 407 kts 314°
2026-05-05 03:03 38.76063 -86.35813 26515 ft 409 kts 314°
2026-05-05 03:03 38.78152 -86.38309 26929 ft 412 kts 314°
2026-05-05 03:04 38.80254 -86.40823 27331 ft 414 kts 314°
2026-05-05 03:04 38.82368 -86.43355 27753 ft 416 kts 314°
2026-05-05 03:04 38.84488 -86.45899 28160 ft 418 kts 313°
2026-05-05 03:04 38.86596 -86.48482 28565 ft 420 kts 313°
2026-05-05 03:05 38.88685 -86.51065 28974 ft 423 kts 313°
2026-05-05 03:05 38.90816 -86.53678 29353 ft 425 kts 313°
2026-05-05 03:05 38.92965 -86.56299 29745 ft 428 kts 313°
2026-05-05 03:05 38.95127 -86.58948 30086 ft 430 kts 313°
2026-05-05 03:06 38.97293 -86.61615 30385 ft 432 kts 313°
2026-05-05 03:06 38.99469 -86.64294 30713 ft 434 kts 313°
2026-05-05 03:06 39.01660 -86.66986 31032 ft 436 kts 313°
2026-05-05 03:06 39.03854 -86.69686 31344 ft 438 kts 312°
2026-05-05 03:07 39.06056 -86.72402 31667 ft 439 kts 312°
2026-05-05 03:07 39.08267 -86.75131 31963 ft 441 kts 312°
2026-05-05 03:07 39.10486 -86.77872 32258 ft 443 kts 312°
2026-05-05 03:07 39.12715 -86.80626 32546 ft 444 kts 312°
2026-05-05 03:08 39.14948 -86.83389 32821 ft 446 kts 312°
2026-05-05 03:08 39.17164 -86.86133 33095 ft 447 kts 312°
2026-05-05 03:08 39.19442 -86.88957 33361 ft 449 kts 312°
2026-05-05 03:08 39.21697 -86.91755 33608 ft 451 kts 312°
2026-05-05 03:09 39.23929 -86.94526 33838 ft 452 kts 312°
2026-05-05 03:09 39.26227 -86.97383 34063 ft 453 kts 312°
2026-05-05 03:09 39.28465 -87.00167 34393 ft 452 kts 312°
2026-05-05 03:09 39.30723 -87.02977 34716 ft 451 kts 312°
2026-05-05 03:10 39.32973 -87.05782 35045 ft 449 kts 312°
2026-05-05 03:10 39.35221 -87.08588 35357 ft 448 kts 312°
2026-05-05 03:10 39.37464 -87.11390 35649 ft 447 kts 312°
2026-05-05 03:11 39.41928 -87.16973 35745 ft 444 kts 311°
2026-05-05 03:11 39.46361 -87.22528 35749 ft 445 kts 311°
2026-05-05 03:12 39.50791 -87.28134 35754 ft 444 kts 309°
2026-05-05 03:12 39.55083 -87.33917 35756 ft 446 kts 310°
2026-05-05 03:13 39.59388 -87.39711 35749 ft 446 kts 309°
2026-05-05 03:13 39.63661 -87.45490 35727 ft 448 kts 309°
2026-05-05 03:14 39.67984 -87.51336 35735 ft 449 kts 309°
2026-05-05 03:14 39.72308 -87.57200 35738 ft 448 kts 309°
2026-05-05 03:15 39.76617 -87.63053 35739 ft 449 kts 309°
2026-05-05 03:15 39.80934 -87.68930 35732 ft 449 kts 309°
2026-05-05 03:16 39.85250 -87.74816 35725 ft 449 kts 309°
2026-05-05 03:16 39.89534 -87.80670 35721 ft 450 kts 309°
2026-05-05 03:17 39.93850 -87.86579 35710 ft 450 kts 309°
2026-05-05 03:17 39.98176 -87.92515 35699 ft 451 kts 309°
2026-05-05 03:18 40.02486 -87.98437 35703 ft 450 kts 309°
2026-05-05 03:18 40.06790 -88.04366 35710 ft 449 kts 309°
2026-05-05 03:19 40.13233 -88.13261 35714 ft 449 kts 309°
2026-05-05 03:19 40.17513 -88.19185 35711 ft 449 kts 309°
2026-05-05 03:20 40.21774 -88.25094 35707 ft 449 kts 309°
2026-05-05 03:20 40.26050 -88.31034 35702 ft 448 kts 309°
2026-05-05 03:21 40.30324 -88.36986 35700 ft 449 kts 309°
2026-05-05 03:21 40.34608 -88.42962 35684 ft 449 kts 309°
2026-05-05 03:22 40.38889 -88.48945 35669 ft 449 kts 309°
2026-05-05 03:22 40.43164 -88.54932 35674 ft 449 kts 309°
2026-05-05 03:23 40.47414 -88.60897 35701 ft 449 kts 309°
2026-05-05 03:23 40.51683 -88.66899 35720 ft 449 kts 309°
2026-05-05 03:24 40.55944 -88.72902 35737 ft 450 kts 309°
2026-05-05 03:24 40.60221 -88.78941 35738 ft 450 kts 309°
2026-05-05 03:25 40.64487 -88.84975 35734 ft 450 kts 309°
2026-05-05 03:25 40.68753 -88.91021 35717 ft 450 kts 309°
2026-05-05 03:26 40.73012 -88.97072 35696 ft 450 kts 309°
2026-05-05 03:26 40.77264 -89.03123 35675 ft 450 kts 309°
2026-05-05 03:27 40.81519 -89.09191 35648 ft 450 kts 309°
2026-05-05 03:27 40.85771 -89.15267 35653 ft 450 kts 309°
2026-05-05 03:28 40.90016 -89.21344 35653 ft 450 kts 309°
2026-05-05 03:28 40.94251 -89.27421 35650 ft 449 kts 309°
2026-05-05 03:29 40.98475 -89.33494 35652 ft 448 kts 309°
2026-05-05 03:29 41.02687 -89.39562 35652 ft 447 kts 309°
2026-05-05 03:30 41.06861 -89.45589 35656 ft 446 kts 309°
2026-05-05 03:30 41.11055 -89.51655 35657 ft 446 kts 309°
2026-05-05 03:31 41.15379 -89.57554 35663 ft 448 kts 317°
2026-05-05 03:31 41.20747 -89.61890 35657 ft 455 kts 329°
2026-05-05 03:32 41.26423 -89.65592 35659 ft 454 kts 329°
2026-05-05 03:32 41.32091 -89.69292 35657 ft 454 kts 329°
2026-05-05 03:33 41.37715 -89.72974 35668 ft 453 kts 328°
2026-05-05 03:33 41.43366 -89.76677 35678 ft 453 kts 328°
2026-05-05 03:34 41.49019 -89.80391 35680 ft 453 kts 328°
2026-05-05 03:34 41.54664 -89.84106 35693 ft 452 kts 328°
2026-05-05 03:35 41.60318 -89.87835 35697 ft 452 kts 328°
2026-05-05 03:35 41.65963 -89.91565 35700 ft 453 kts 328°
2026-05-05 03:36 41.71611 -89.95304 35703 ft 453 kts 328°
2026-05-05 03:36 41.77258 -89.99049 35690 ft 452 kts 328°
2026-05-05 03:37 41.81947 -90.02166 35722 ft 452 kts 328°
2026-05-05 03:37 41.88496 -90.06527 35728 ft 452 kts 328°
2026-05-05 03:38 41.94123 -90.10281 35740 ft 452 kts 328°
2026-05-05 03:38 41.98803 -90.13410 35737 ft 452 kts 327°
2026-05-05 03:39 42.04425 -90.17175 35742 ft 451 kts 327°
2026-05-05 03:39 42.10044 -90.20945 35740 ft 451 kts 327°
2026-05-05 03:40 42.15660 -90.24722 35730 ft 451 kts 327°
2026-05-05 03:40 42.21268 -90.28499 35723 ft 451 kts 327°
2026-05-05 03:41 42.26882 -90.32291 35714 ft 452 kts 327°
2026-05-05 03:41 42.32500 -90.36090 35719 ft 451 kts 327°
2026-05-05 03:42 42.38115 -90.39895 35728 ft 450 kts 327°
2026-05-05 03:42 42.43680 -90.43676 35727 ft 450 kts 327°
2026-05-05 03:43 42.49277 -90.47484 35723 ft 450 kts 327°
2026-05-05 03:43 42.54880 -90.51305 35732 ft 451 kts 326°
2026-05-05 03:44 42.60477 -90.55129 35737 ft 450 kts 326°
2026-05-05 03:44 42.66068 -90.58957 35738 ft 449 kts 326°
2026-05-05 03:45 42.71640 -90.62780 35731 ft 448 kts 326°
2026-05-05 03:45 42.77194 -90.66598 35733 ft 446 kts 326°
2026-05-05 03:46 42.82733 -90.70413 35723 ft 447 kts 326°
2026-05-05 03:46 42.88288 -90.74248 35719 ft 447 kts 326°
2026-05-05 03:47 42.93837 -90.78085 35723 ft 447 kts 326°
2026-05-05 03:47 42.99380 -90.81927 35724 ft 447 kts 326°
2026-05-05 03:48 43.04880 -90.85745 35723 ft 446 kts 326°
2026-05-05 03:48 43.10410 -90.89594 35731 ft 446 kts 326°
2026-05-05 03:49 43.15938 -90.93447 35725 ft 445 kts 325°